OOEHY CYYR-CYGL

Flight info

Callsign OOEHY
Flight time N/A
Altitude 4000
Route LABDR1 TUDER DCT VOKAR DCT BROME DCT AGLOL DCT DUTOX
Aircraft C172/L-SFG/C

Departure

Time N/A
Airport Goose Bay Airport (CYYR)

Arrival

Time 2026-04-21 04:38
Airport La Grande Rivière Airport (CYGL)
Time Latitude Longitude Altitude Speed Heading
2026-04-21 03:47 53.64043 -75.77612 5295 ft 110 kts 265°
2026-04-21 03:47 53.63987 -75.78893 5293 ft 110 kts 265°
2026-04-21 03:47 53.63931 -75.80184 5289 ft 111 kts 265°
2026-04-21 03:47 53.63876 -75.81475 5294 ft 110 kts 265°
2026-04-21 03:48 53.63822 -75.82747 5308 ft 109 kts 265°
2026-04-21 03:48 53.63766 -75.84035 5300 ft 110 kts 265°
2026-04-21 03:48 53.63710 -75.85335 5297 ft 111 kts 265°
2026-04-21 03:48 53.63654 -75.86616 5307 ft 110 kts 265°
2026-04-21 03:49 53.63596 -75.87901 5310 ft 110 kts 265°
2026-04-21 03:49 53.63538 -75.89205 5299 ft 111 kts 265°
2026-04-21 03:49 53.63481 -75.90507 5299 ft 111 kts 265°
2026-04-21 03:49 53.63423 -75.91792 5303 ft 111 kts 265°
2026-04-21 03:50 53.63366 -75.93085 5298 ft 111 kts 265°
2026-04-21 03:50 53.63307 -75.94392 5303 ft 111 kts 265°
2026-04-21 03:50 53.63249 -75.95676 5299 ft 111 kts 265°
2026-04-21 03:50 53.63191 -75.96981 5304 ft 111 kts 265°
2026-04-21 03:51 53.63135 -75.98272 5299 ft 111 kts 265°
2026-04-21 03:51 53.63076 -75.99571 5301 ft 111 kts 265°
2026-04-21 03:51 53.63016 -76.00884 5301 ft 111 kts 265°
2026-04-21 03:51 53.62956 -76.02172 5293 ft 111 kts 265°
2026-04-21 03:52 53.62897 -76.03470 5303 ft 110 kts 265°
2026-04-21 03:52 53.62837 -76.04749 5302 ft 111 kts 265°
2026-04-21 03:52 53.62777 -76.06047 5299 ft 110 kts 265°
2026-04-21 03:52 53.62717 -76.07328 5300 ft 110 kts 265°
2026-04-21 03:53 53.62659 -76.08608 5295 ft 110 kts 265°
2026-04-21 03:53 53.62600 -76.09895 5315 ft 109 kts 265°
2026-04-21 03:53 53.62540 -76.11182 5307 ft 110 kts 265°
2026-04-21 03:53 53.62481 -76.12456 5302 ft 110 kts 265°
2026-04-21 03:54 53.62421 -76.13753 5299 ft 110 kts 265°
2026-04-21 03:54 53.62362 -76.15026 5319 ft 109 kts 265°
2026-04-21 03:54 53.62302 -76.16299 5317 ft 109 kts 265°
2026-04-21 03:54 53.62239 -76.17598 5298 ft 110 kts 265°
2026-04-21 03:55 53.62180 -76.18875 5312 ft 109 kts 265°
2026-04-21 03:55 53.62120 -76.20152 5313 ft 109 kts 265°
2026-04-21 03:55 53.62060 -76.21426 5315 ft 109 kts 265°
2026-04-21 03:55 53.62000 -76.22719 5305 ft 110 kts 265°
2026-04-21 03:56 53.61940 -76.23992 5318 ft 109 kts 265°
2026-04-21 03:56 53.61878 -76.25286 5302 ft 110 kts 265°
2026-04-21 03:56 53.61818 -76.26562 5311 ft 110 kts 265°
2026-04-21 03:56 53.61756 -76.27848 5315 ft 110 kts 264°
2026-04-21 03:57 53.61694 -76.29127 5315 ft 109 kts 265°
2026-04-21 03:57 53.61634 -76.30418 5311 ft 110 kts 265°
2026-04-21 03:57 53.61573 -76.31692 5308 ft 110 kts 265°
2026-04-21 03:57 53.61510 -76.32985 5312 ft 109 kts 265°
2026-04-21 03:58 53.61449 -76.34257 5316 ft 109 kts 265°
2026-04-21 03:58 53.61386 -76.35545 5318 ft 109 kts 264°
2026-04-21 03:58 53.61323 -76.36834 5302 ft 110 kts 264°
2026-04-21 03:58 53.61260 -76.38120 5297 ft 111 kts 265°
2026-04-21 03:59 53.61200 -76.39391 5312 ft 110 kts 265°
2026-04-21 03:59 53.61136 -76.40684 5309 ft 110 kts 265°
2026-04-21 03:59 53.61073 -76.41961 5314 ft 110 kts 264°
2026-04-21 04:00 53.60946 -76.44532 5304 ft 110 kts 265°
2026-04-21 04:00 53.60883 -76.45808 5305 ft 110 kts 265°
2026-04-21 04:00 53.60818 -76.47108 5293 ft 111 kts 265°
2026-04-21 04:00 53.60757 -76.48383 5299 ft 111 kts 264°
2026-04-21 04:01 53.60693 -76.49662 5313 ft 110 kts 265°
2026-04-21 04:01 53.60629 -76.50951 5312 ft 110 kts 264°
2026-04-21 04:01 53.60567 -76.52229 5305 ft 111 kts 265°
2026-04-21 04:01 53.60502 -76.53520 5309 ft 111 kts 264°
2026-04-21 04:02 53.60438 -76.54801 5304 ft 111 kts 264°
2026-04-21 04:02 53.60375 -76.56094 5304 ft 111 kts 264°
2026-04-21 04:02 53.60312 -76.57359 5308 ft 110 kts 264°
2026-04-21 04:02 53.60248 -76.58643 5325 ft 108 kts 264°
2026-04-21 04:03 53.60183 -76.59921 5311 ft 110 kts 264°
2026-04-21 04:03 53.60118 -76.61196 5302 ft 110 kts 264°
2026-04-21 04:03 53.60054 -76.62464 5311 ft 110 kts 264°
2026-04-21 04:03 53.59989 -76.63739 5307 ft 110 kts 264°
2026-04-21 04:04 53.59925 -76.65027 5314 ft 109 kts 263°
2026-04-21 04:04 53.59860 -76.66289 5323 ft 109 kts 263°
2026-04-21 04:04 53.59795 -76.67580 5322 ft 109 kts 263°
2026-04-21 04:04 53.59732 -76.68851 5335 ft 109 kts 263°
2026-04-21 04:05 53.59666 -76.70136 5323 ft 110 kts 263°
2026-04-21 04:05 53.59601 -76.71404 5321 ft 110 kts 263°
2026-04-21 04:05 53.59534 -76.72697 5331 ft 109 kts 263°
2026-04-21 04:05 53.59466 -76.73975 5311 ft 111 kts 263°
2026-04-21 04:06 53.59401 -76.75243 5341 ft 108 kts 263°
2026-04-21 04:06 53.59335 -76.76524 5328 ft 109 kts 263°
2026-04-21 04:06 53.59268 -76.77809 5333 ft 109 kts 263°
2026-04-21 04:06 53.59202 -76.79076 5336 ft 109 kts 263°
2026-04-21 04:07 53.59135 -76.80359 5323 ft 110 kts 263°
2026-04-21 04:07 53.59068 -76.81652 5313 ft 110 kts 263°
2026-04-21 04:07 53.59003 -76.82909 5332 ft 109 kts 263°
2026-04-21 04:07 53.58935 -76.84193 5332 ft 108 kts 263°
2026-04-21 04:08 53.58869 -76.85455 5339 ft 108 kts 263°
2026-04-21 04:08 53.58803 -76.86723 5323 ft 109 kts 263°
2026-04-21 04:08 53.58733 -76.88001 5325 ft 109 kts 262°
2026-04-21 04:08 53.58657 -76.89255 5335 ft 108 kts 262°
2026-04-21 04:09 53.58577 -76.90532 5320 ft 110 kts 262°
2026-04-21 04:09 53.58497 -76.91796 5327 ft 109 kts 262°
2026-04-21 04:09 53.58420 -76.93076 5326 ft 109 kts 262°
2026-04-21 04:09 53.58347 -76.94335 5317 ft 110 kts 263°
2026-04-21 04:10 53.58277 -76.95597 5319 ft 110 kts 263°
2026-04-21 04:10 53.58208 -76.96884 5295 ft 111 kts 263°
2026-04-21 04:10 53.58138 -76.98183 5203 ft 111 kts 263°
2026-04-21 04:10 53.58070 -76.99464 5124 ft 110 kts 263°
2026-04-21 04:11 53.58002 -77.00746 5031 ft 110 kts 263°
2026-04-21 04:11 53.57934 -77.02020 4942 ft 110 kts 263°
2026-04-21 04:11 53.57867 -77.03288 4869 ft 109 kts 263°
2026-04-21 04:11 53.57798 -77.04554 4804 ft 108 kts 262°
2026-04-21 04:12 53.57728 -77.05833 4719 ft 108 kts 262°
2026-04-21 04:12 53.57659 -77.07098 4627 ft 109 kts 262°
2026-04-21 04:12 53.57590 -77.08369 4539 ft 109 kts 262°
2026-04-21 04:12 53.57519 -77.09656 4443 ft 110 kts 262°
2026-04-21 04:13 53.57450 -77.10931 4348 ft 110 kts 262°
2026-04-21 04:13 53.57378 -77.12224 4239 ft 111 kts 262°
2026-04-21 04:13 53.57309 -77.13514 4146 ft 110 kts 262°
2026-04-21 04:13 53.57238 -77.14801 4033 ft 112 kts 262°
2026-04-21 04:14 53.57169 -77.16086 3974 ft 109 kts 262°
2026-04-21 04:14 53.57097 -77.17368 3863 ft 111 kts 261°
2026-04-21 04:14 53.57025 -77.18673 3779 ft 111 kts 261°
2026-04-21 04:14 53.56954 -77.19958 3684 ft 111 kts 261°
2026-04-21 04:15 53.56882 -77.21246 3588 ft 111 kts 261°
2026-04-21 04:15 53.56810 -77.22555 3485 ft 112 kts 261°
2026-04-21 04:15 53.56738 -77.23852 3397 ft 111 kts 261°
2026-04-21 04:15 53.56665 -77.25163 3300 ft 111 kts 261°
2026-04-21 04:16 53.56594 -77.26457 3220 ft 110 kts 260°
2026-04-21 04:16 53.56519 -77.27753 3129 ft 111 kts 260°
2026-04-21 04:16 53.56448 -77.29037 3020 ft 110 kts 261°
2026-04-21 04:16 53.56379 -77.30290 2939 ft 107 kts 260°
2026-04-21 04:17 53.56309 -77.31532 2864 ft 106 kts 260°
2026-04-21 04:17 53.56237 -77.32779 2773 ft 106 kts 260°
2026-04-21 04:17 53.56165 -77.34012 2665 ft 107 kts 260°
2026-04-21 04:17 53.56094 -77.35249 2570 ft 106 kts 261°
2026-04-21 04:18 53.56024 -77.36478 2479 ft 105 kts 260°
2026-04-21 04:18 53.55955 -77.37716 2396 ft 106 kts 260°
2026-04-21 04:18 53.55879 -77.38986 2321 ft 112 kts 261°
2026-04-21 04:18 53.55804 -77.40276 2306 ft 112 kts 261°
2026-04-21 04:19 53.55731 -77.41580 2307 ft 110 kts 261°
2026-04-21 04:19 53.55695 -77.42853 2311 ft 112 kts 274°
2026-04-21 04:19 53.55938 -77.44124 2305 ft 115 kts 288°
2026-04-21 04:19 53.56249 -77.45375 2302 ft 115 kts 289°
2026-04-21 04:20 53.56562 -77.46609 2303 ft 115 kts 289°
2026-04-21 04:20 53.56879 -77.47845 2297 ft 116 kts 289°
2026-04-21 04:20 53.57200 -77.49099 2300 ft 116 kts 290°
2026-04-21 04:20 53.57517 -77.50354 2299 ft 116 kts 289°
2026-04-21 04:21 53.57834 -77.51605 2305 ft 116 kts 289°
2026-04-21 04:21 53.58150 -77.52853 2301 ft 117 kts 290°
2026-04-21 04:21 53.58471 -77.54117 2297 ft 117 kts 290°
2026-04-21 04:21 53.58818 -77.55356 2305 ft 118 kts 301°
2026-04-21 04:22 53.59335 -77.56461 2303 ft 120 kts 307°
2026-04-21 04:22 53.59866 -77.57533 2303 ft 120 kts 307°
2026-04-21 04:22 53.60408 -77.58622 2296 ft 121 kts 307°
2026-04-21 04:22 53.60943 -77.59696 2300 ft 120 kts 307°
2026-04-21 04:23 53.61485 -77.60786 2299 ft 120 kts 307°
2026-04-21 04:23 53.62020 -77.61865 2296 ft 121 kts 307°
2026-04-21 04:23 53.62564 -77.62958 2299 ft 121 kts 307°
2026-04-21 04:23 53.63099 -77.64045 2291 ft 121 kts 307°
2026-04-21 04:24 53.63634 -77.65127 2296 ft 121 kts 306°
2026-04-21 04:24 53.64178 -77.66228 2292 ft 121 kts 306°
2026-04-21 04:24 53.64714 -77.67309 2289 ft 121 kts 306°
2026-04-21 04:24 53.65252 -77.68400 2293 ft 121 kts 306°
2026-04-21 04:25 53.65787 -77.69482 2290 ft 121 kts 306°
2026-04-21 04:25 53.66330 -77.70579 2289 ft 121 kts 306°
2026-04-21 04:25 53.66860 -77.71654 2294 ft 120 kts 306°
2026-04-21 04:25 53.67403 -77.72752 2303 ft 120 kts 306°
2026-04-21 04:26 53.67937 -77.73835 2292 ft 121 kts 306°
2026-04-21 04:26 53.68474 -77.74927 2290 ft 121 kts 306°
2026-04-21 04:26 53.69015 -77.76025 2289 ft 121 kts 306°
2026-04-21 04:26 53.69549 -77.77113 2278 ft 122 kts 307°
2026-04-21 04:27 53.70085 -77.78207 2294 ft 121 kts 307°
2026-04-21 04:27 53.70625 -77.79308 2292 ft 122 kts 308°
2026-04-21 04:27 53.71170 -77.80418 2293 ft 124 kts 309°
2026-04-21 04:27 53.71723 -77.81548 2291 ft 125 kts 309°
2026-04-21 04:28 53.72285 -77.82680 2291 ft 125 kts 309°
2026-04-21 04:28 53.72837 -77.83792 2297 ft 124 kts 308°
2026-04-21 04:28 53.73391 -77.84916 2307 ft 122 kts 307°
2026-04-21 04:28 53.73931 -77.86014 2299 ft 122 kts 306°
2026-04-21 04:29 53.74470 -77.87116 2302 ft 121 kts 306°
2026-04-21 04:29 53.75011 -77.88224 2295 ft 121 kts 305°
2026-04-21 04:29 53.75549 -77.89324 2305 ft 122 kts 305°
2026-04-21 04:29 53.76091 -77.90432 2298 ft 123 kts 306°
2026-04-21 04:30 53.76454 -77.91559 2271 ft 118 kts 278°
2026-04-21 04:30 53.76481 -77.92127 2284 ft 113 kts 262°
2026-04-21 04:30 53.76208 -77.93296 2293 ft 104 kts 226°
2026-04-21 04:30 53.75619 -77.93964 2313 ft 101 kts 207°
2026-04-21 04:31 53.74980 -77.94467 2315 ft 101 kts 204°
2026-04-21 04:31 53.74329 -77.94947 2294 ft 102 kts 203°
2026-04-21 04:31 53.73678 -77.95413 2303 ft 100 kts 203°
2026-04-21 04:31 53.73033 -77.95869 2295 ft 100 kts 203°
2026-04-21 04:32 53.72384 -77.96328 2299 ft 100 kts 203°
2026-04-21 04:32 53.71742 -77.96784 2303 ft 100 kts 203°
2026-04-21 04:32 53.71106 -77.97237 2302 ft 100 kts 203°
2026-04-21 04:32 53.70456 -77.97694 2298 ft 101 kts 201°
2026-04-21 04:33 53.69740 -77.97691 2143 ft 106 kts 166°
2026-04-21 04:33 53.69218 -77.96967 2067 ft 93 kts 132°
2026-04-21 04:33 53.68942 -77.96045 2093 ft 86 kts 123°
2026-04-21 04:33 53.68686 -77.95064 2110 ft 97 kts 122°
2026-04-21 04:34 53.68405 -77.93967 2103 ft 106 kts 121°
2026-04-21 04:34 53.68112 -77.92821 2094 ft 105 kts 120°
2026-04-21 04:34 53.67819 -77.91677 1922 ft 114 kts 120°
2026-04-21 04:34 53.67535 -77.90555 1821 ft 93 kts 119°
2026-04-21 04:35 53.67293 -77.89578 1823 ft 90 kts 118°
2026-04-21 04:35 53.67053 -77.88609 1823 ft 90 kts 117°
2026-04-21 04:35 53.66810 -77.87633 1824 ft 89 kts 117°
2026-04-21 04:35 53.66563 -77.86678 1822 ft 89 kts 116°
2026-04-21 04:36 53.66321 -77.85725 1819 ft 89 kts 116°
2026-04-21 04:36 53.66082 -77.84759 1818 ft 88 kts 115°
2026-04-21 04:36 53.65851 -77.83794 1818 ft 88 kts 115°
2026-04-21 04:36 53.65624 -77.82841 1815 ft 88 kts 113°
2026-04-21 04:37 53.65405 -77.81885 1812 ft 84 kts 115°
2026-04-21 04:37 53.65188 -77.81012 1795 ft 80 kts 116°
2026-04-21 04:37 53.64962 -77.80115 1679 ft 85 kts 114°
2026-04-21 04:37 53.64743 -77.79164 1516 ft 90 kts 115°
2026-04-21 04:38 53.64521 -77.78236 1389 ft 79 kts 116°
2026-04-21 04:38 53.64341 -77.77490 1304 ft 62 kts 116°
2026-04-21 04:38 53.64180 -77.76824 1227 ft 57 kts 115°
2026-04-21 04:38 53.64053 -77.76260 1163 ft 48 kts 116°
2026-04-21 04:39 53.63921 -77.75729 1076 ft 48 kts 116°
2026-04-21 04:39 53.63789 -77.75172 1023 ft 58 kts 115°
2026-04-21 04:39 53.63618 -77.74538 1021 ft 58 kts 116°
2026-04-21 04:39 53.63470 -77.73909 939 ft 61 kts 112°
2026-04-21 04:40 53.63300 -77.73279 854 ft 57 kts 127°
2026-04-21 04:40 53.63125 -77.72659 763 ft 57 kts 119°
2026-04-21 04:40 53.62960 -77.72053 678 ft 57 kts 117°
2026-04-21 04:40 53.62810 -77.71465 631 ft 50 kts 114°
2026-04-21 04:41 53.62702 -77.71046 621 ft 28 kts 110°
2026-04-21 04:41 53.62648 -77.70821 626 ft 14 kts 119°
2026-04-21 04:41 53.62601 -77.70640 631 ft 21 kts 113°
2026-04-21 04:41 53.62535 -77.70379 639 ft 25 kts 114°
2026-04-21 04:42 53.62470 -77.70122 644 ft 22 kts 114°
2026-04-21 04:42 53.62423 -77.69930 644 ft 11 kts 103°
2026-04-21 04:42 53.62458 -77.69824 643 ft 14 kts 46°
2026-04-21 04:42 53.62536 -77.69760 640 ft 8 kts 32°
2026-04-21 04:43 53.62565 -77.69685 640 ft 6 kts 64°
2026-04-21 04:43 53.62565 -77.69566 642 ft 11 kts 112°
2026-04-21 04:43 53.62535 -77.69445 645 ft 13 kts 116°
2026-04-21 04:43 53.62483 -77.69437 647 ft 1 kts 205°
2026-04-21 04:44 53.62481 -77.69438 647 ft 0 kts 202°
2026-04-21 04:54 53.62482 -77.69438 647 ft 0 kts 202°
2026-04-21 04:54 53.62492 -77.69430 647 ft 3 kts 219°
2026-04-21 04:55 53.62505 -77.69404 647 ft 2 kts 226°
2026-04-21 04:55 53.62506 -77.69390 647 ft 0 kts 296°